Regional Weather Roundup
Issued by NWS

Home | Current Version | Previous Version | Text Only | Print | Product List | Glossary On
Versions: 1 2 3 4 5 6 7 8 9 10 11 12 13 14 15 16 17 18 19 20 21 22 23 24 25 26 27 28 29 30 31 32 33 34 35 36 37 38 39 40 41 42 43 44 45 46 47 48 49 50
000
ASUS43 KTOP 260908
RWRKS

WEATHER ROUNDUP FOR KANSAS
NATIONAL WEATHER SERVICE GOODLAND KS
400 AM CDT SUN MAR 26 2017

NOTE:  "FAIR" INDICATES FEW OR NO CLOUDS BELOW 12,000 FEET WITH NO
SIGNIFICANT WEATHER AND/OR OBSTRUCTIONS TO VISIBILITY.

KSZ001>006-013>018-027>032-041>047-261000-
NORTHWEST KANSAS

CITY           SKY/WX    TMP DP  RH WIND       PRES   REMARKS
GOODLAND       CLEAR     37  36  96 SE7       29.82F
HAYS             N/A     42  39  89 E7        29.88F
HILL CITY      CLOUDY    41  40  96 E6        29.89F FOG
RUSSELL        CLOUDY    40  40 100 SE3       29.88F FOG
$$

KSZ061>065-074>080-084>089-261000-
SOUTHWEST KANSAS

CITY           SKY/WX    TMP DP  RH WIND       PRES   REMARKS
DODGE CITY     CLOUDY    34  33  96 SE5       29.86F FOG
ELKHART          N/A     38  26  62 SE13        N/A  WCI  30
GARDEN CITY    CLEAR     38  36  92 SE9       29.83F
GREAT BEND     CLOUDY    41  40  96 SE5       29.89F FOG
LIBERAL        CLEAR     41  34  75 E12       29.81F
PRATT          CLOUDY    38  37  96 SE5       29.89F FOG
$$

KSZ066>073-081>083-090>101-261000-
SOUTHEAST KANSAS

CITY           SKY/WX    TMP DP  RH WIND       PRES   REMARKS
CHANUTE        CLOUDY    46  44  93 W6        29.92R
COFFEYVILLE    CLOUDY    47  43  86 W5        29.93R
HUTCHINSON     CLOUDY    43  40  89 CALM      29.90F
MEDICINE LODGE   N/A     42  39  89 SE5       29.90R
NEWTON         CLOUDY    42  41  96 NW3       29.91F FOG
PARSONS        CLOUDY    47  45  93 W6        29.94R
WICHITA INTL   CLOUDY    44  43  96 CALM      29.89F FOG
WICHITA JABRA  CLOUDY    43  43 100 CALM      29.90F FOG
WICHITA MCCONL CLOUDY    44  42  93 CALM      29.90F
WINFIELD       CLOUDY    45  41  86 SW3       29.92F
$$

KSZ007>012-019>026-033>040-048>060-102>105-261000-
NORTHEAST KANSAS

CITY           SKY/WX    TMP DP  RH WIND       PRES   REMARKS
CONCORDIA      CLOUDY    40  40 100 CALM      29.91S
EMPORIA        CLOUDY    44  44 100 W5        29.91R
LAWRENCE       CLOUDY    44  42  93 W7        29.90R
MANHATTAN      CLOUDY    43  40  89 CALM      29.91R
MARYSVILLE     CLOUDY    41  39  93 NW3       29.89F
OLATHE IND     CLOUDY    43  41  93 W8        29.89R
OLATHE EXE     CLOUDY    43  43 100 NW8       29.87S
SALINA         CLOUDY    44  42  93 NW3       29.93F
TOPEKA BILLARD CLOUDY    44  42  93 W5        29.90R
TOPEKA FORBES  CLOUDY    45  42  89 NW6       29.90S
$$




USA.gov is the U.S. government's official web portal to all federal, state and local government web resources and services.